SCP
0 0 0 0 0 0 0 0 0 0 0 0 0 0 0 0 0 0 0 0 0 0 0 0 0 0 0 0 0 0 0 0 0 0 0 0 0 0 0 0 0 0 0 0
0 0 0 0 0 0 0 0 0 0 0 0 0 0 0 0 0 0 0 0 0 0 0 0 0 0 0 0 0 0 0 0 0 0 0 0 0 0 0 0 0 0 0 0
0 0 0 0 0 0 0 0 0 0 0 0 0 0 -0 0 0 0 0 0 0 0 0 0 0 0 0 0 0 0 0 0 0 0 0 0 0 0 0 0 0 0 0 0
0 0 0 0 0 0 0 0 0 0 0 0 0 -0 0 0 0 0 0 0 0 0 0 0 0 0 0 0 0 0 0 0 0 0 0 0 0 0 0 0 0 0 0 0
0 0 0 0 0 0 0 0 0 0 0 0 0 0 -0 0 0 0 0 0 0 0 0 0 0 0 0 0 0 0 0 0 0 0 0 0 0 0 0 0 0 0 0 0
0 0 0 0 0 0 0 0 0 0 0 0 0 0 -0 -0 -0 -0 0 0 0 0 0 0 0 0 0 0 0 0 0 0 0 0 0 0 0 0 0 0 0 0 0 0
0 0 0 0 0 0 0 0 0 0 0 0 0 0 0 0 0 0 0 0 0 0 0 0 0 0 0 0 0 0 0 0 0 0 0 0 0 0 0 0 0 0 0 0
0 0 0 0 0 0 0 0 0 0 0 0 0 0 0 0 0 0 0 0 0 0 0 0 0 0 0 0 0 0 0 0 0 0 0 0 0 0 0 0 0 0 0 0
0 0 0 0 0 0 0 0 0 0 0 0 0 0 0 0 0 -0 0 0 0 0 0 0 0 0 0 0 0 0 0 0 0 0 0 0 0 0 0 0 0 0 0 0
0 0 0 0 0 0 0 0 0 0 0 0 0 0 0 0 0 -0 0 0 0 0 0 0 0 0 0 0 0 0 0 0 0 0 0 0 0 0 0 0 0 0 0 0
0 0 0 0 0 0 0 0 0 0 0 0 0 0 0 0 -0 -0 0 0 0 0 0 0 0 0 0 0 0 0 0 0 0 0 0 0 0 0 0 0 0 0 0 0
0 0 0 0 0 0 0 0 0 0 0 0 0 0 0 0 0 0 0 0 0 0 0 0 0 0 0 0 0 0 0 0 0 0 0 0 0 0 0 0 0 0 0 0
0 0 0 0 0 0 0 0 0 0 0 0 0 0 0 0 0 0 0 0 0 0 0 0 0 0 0 0 0 0 0 0 0 0 0 0 0 0 0 0 0 0 0 0
0 0 0 0 0 0 0 0 0 0 0 0 0 0 0 0 0 0 0 0 0 0 0 0 0 0 -0 0 0 0 0 0 0 0 0 0 0 0 0 0 0 0 0 0
0 0 0 0 0 0 0 0 0 0 0 0 0 0 0 0 0 0 0 0 0 0 0 0 0 -0 -0 -0 0 0 0 0 0 0 0 0 0 0 0 0 0 0 0 0
-0 0 0 0 0 0 0 0 0 0 0 0 0 0 0 0 0 0 0 0 0 0 0 -0 0 0 0 0 0 0 0 0 0 0 0 0 0 0 0 0 0 0 0 0
-0 -0 -0 0 0 0 0 0 0 0 0 0 0 0 0 0 0 0 0 0 0 0 0 0 0 0 0 0 0 0 0 0 0 0 0 0 0 0 0 0 0 0 0 0
0 -0 -0 0 -0 0 0 0 0 0 0 0 0 0 0 0 0 0 0 0 0 0 0 0 0 0 0 0 0 0 0 0 0 0 0 0 0 0 0 0 0 0 0 0
0 0 0 0 -0 0 0 0 0 0 0 0 0 0 0 0 0 0 0 0 0 0 0 0 0 0 0 0 0 0 0 0 0 0 0 0 0 0 0 0 0 0 0 0
0 0 0 0 -0 -0 0 0 -0 0 0 0 0 0 0 0 0 0 0 0 0 0 0 0 0 0 0 0 0 0 0 0 0 0 0 0 0 0 0 0 0 0 0 0
0 0 0 0 0 0 0 -0 0 -0 0 0 0 -0 0 0 0 0 0 0 0 0 0 0 0 0 0 0 0 0 0 0 0 0 0 0 0 0 0 0 0 0 0 0
0 0 0 0 0 0 0 0 0 0 0 0 0 0 0 0 0 0 0 0 0 0 0 0 0 0 0 0 0 0 0 0 0 0 0 0 0 0 0 0 0 0 0 0
0 0 0 0 0 0 0 0 0 0 0 0 0 0 0 0 0 0 0 0 0 0 0 0 0 0 0 0 0 0 0 0 0 0 0 0 0 0 0 0 0 0 0 0
0 0 0 0 0 0 0 0 0 0 0 0 0 0 0 0 0 0 0 0 0 0 0 0 0 0 0 0 0 0 0 0 0 0 0 0 0 0 0 0 0 0 0 0
0 0 0 0 0 0 0 0 0 0 0 0 0 0 0 0 0 0 0 0 0 0 0 0 0 0 0 0 0 0 0 0 0 0 0 0 0 0 0 0 0 0 0 0
0 0 0 0 0 0 0 0 0 0 0 0 0 0 0 0 0 0 0 0 0 0 0 0 0 0 0 0 0 0 0 0 0 0 0 0 0 0 0 0 0 0 0 0
Wind_Speed_500mb
19 16 32 38 39 15 10 22 19 6 5 10 31 39 39 47 41 39 36 38 48 57 64 64 64 61 55 60 60 60 56 51 51 55 55 55 53 50 49 43 38 33 32 33
10 35 26 15 20 22 19 19 19 12 4 8 23 37 36 47 48 59 63 63 59 48 45 53 59 68 70 70 67 64 61 60 59 60 59 57 54 53 48 44 38 36 35 35
30 5 24 24 20 27 28 33 23 17 7 11 21 48 45 35 61 62 60 61 60 60 63 65 73 72 65 70 75 76 73 68 65 66 68 66 64 63 59 52 43 39 37 36
25 31 19 26 33 25 27 20 21 18 11 15 4 23 33 9 20 24 44 50 62 72 83 81 75 75 79 83 73 61 59 62 64 62 69 74 67 64 62 57 51 45 40 40
15 15 31 22 17 29 10 15 20 22 22 20 32 18 15 4 19 27 38 55 58 52 53 62 69 85 83 77 74 76 75 73 66 63 59 62 65 59 59 60 58 55 53 51
21 4 21 21 12 29 20 17 11 6 7 16 34 27 32 28 21 23 32 35 35 37 37 49 59 54 61 66 76 74 66 69 66 62 58 59 57 53 56 60 61 60 56 53
12 24 8 12 18 12 27 25 7 8 11 18 7 24 45 11 17 23 29 26 19 22 26 32 40 38 37 48 58 62 75 70 72 73 70 67 61 59 56 56 58 55 51 49
24 17 34 25 22 14 32 32 11 17 12 9 7 23 16 10 27 36 41 49 51 49 44 35 28 34 42 43 48 52 53 59 67 70 71 69 61 57 57 56 52 48 44 40
17 22 8 13 17 29 20 27 22 4 5 6 14 19 19 22 25 36 36 28 30 29 28 29 29 28 26 30 37 43 53 50 50 51 54 53 50 50 46 41 40 38 33 30
3 9 4 24 20 30 25 20 11 12 13 18 22 21 24 8 17 29 35 37 27 20 21 27 23 19 16 23 29 30 31 35 40 43 43 43 41 37 37 35 33 30 27 25
6 7 6 9 26 31 16 10 12 14 19 14 14 17 4 21 24 21 13 18 16 20 14 15 16 15 14 17 23 27 31 36 39 40 38 35 35 35 33 31 29 27 27 26
28 11 10 17 4 20 41 36 28 16 21 23 27 36 8 2 5 9 18 13 6 6 7 5 3 7 14 19 25 31 37 40 41 38 34 33 33 34 34 33 32 33 31 27
22 14 26 24 11 16 20 40 40 42 21 33 25 33 15 30 21 21 23 17 14 9 10 7 4 4 14 22 31 39 42 44 42 41 40 39 39 39 39 37 37 36 33 30
20 19 25 35 39 26 22 41 48 43 30 43 38 60 45 24 22 37 44 44 24 15 16 9 6 9 13 23 36 45 49 50 49 49 49 49 47 48 46 45 45 44 41 40
7 9 15 40 41 35 29 37 44 52 58 45 53 57 58 46 40 44 31 24 17 23 30 40 51 57 53 47 40 47 56 57 56 58 58 57 57 54 52 52 53 52 52 51
19 10 23 38 29 30 43 45 38 37 37 48 59 56 53 56 50 46 46 57 52 60 66 60 67 61 66 57 53 46 51 59 66 69 69 66 65 61 61 62 63 61 59 58
9 7 6 12 13 24 16 27 43 46 50 49 53 63 58 54 42 45 45 38 53 68 69 65 66 67 68 57 60 61 54 53 62 75 77 76 72 70 70 69 67 66 65 63
11 12 12 20 20 38 12 25 33 39 48 41 38 46 53 62 72 62 58 59 74 79 79 86 84 84 78 72 66 64 57 50 52 56 64 76 77 76 74 72 72 70 69 67
31 17 15 16 26 23 31 35 23 25 38 43 48 53 78 89 86 68 76 85 94 77 74 80 72 74 73 68 63 63 60 57 53 55 57 63 71 76 74 74 71 70 69 69
30 27 18 18 24 39 38 23 18 2 17 30 42 42 56 74 33 36 62 60 75 81 81 77 71 68 62 55 51 50 50 50 49 50 51 56 62 67 70 73 71 70 70 69
8 11 31 25 21 16 22 33 17 18 31 52 46 47 63 42 46 79 55 52 50 59 65 64 55 49 46 42 40 37 39 42 39 39 38 38 41 49 57 62 64 63 63 64
19 12 11 11 14 19 43 4 21 28 46 46 29 33 42 58 63 56 49 40 38 36 38 39 38 35 30 26 25 25 27 26 27 28 27 27 29 34 38 42 47 51 55 59
17 24 17 12 9 9 28 42 46 23 20 36 38 30 39 47 43 39 33 26 31 33 32 29 25 22 19 18 18 18 14 13 12 12 14 15 18 22 27 33 37 41 46 51
17 33 21 31 36 45 64 47 47 48 49 49 55 49 39 43 39 31 22 23 28 29 25 24 22 19 15 14 13 12 13 13 12 13 15 16 18 20 23 26 30 33 39 46
23 18 31 36 37 58 58 42 36 35 32 39 45 42 37 34 27 22 20 20 26 23 23 22 18 16 13 10 9 7 5 6 7 9 11 13 17 19 23 26 30 34 37 39
37 35 21 27 35 13 20 17 18 23 31 35 32 32 28 24 23 21 22 21 18 20 16 15 16 9 8 6 3 1 0 2 7 11 14 17 21 24 27 29 30 32 32 33
Wind_Direction_500mb
177 205 211 202 208 232 257 221 230 235 229 244 242 251 256 256 249 253 249 249 248 247 248 246 244 247 245 242 242 243 244 243 242 242 242 244 247 250 252 255 255 254 252 249
177 229 230 229 201 207 222 226 228 265 218 230 277 270 263 260 252 249 250 252 252 254 252 249 248 247 245 245 247 244 243 244 245 247 247 247 251 253 256 257 253 250 249 250
211 179 199 191 201 207 220 229 227 249 322 243 294 279 258 245 245 247 246 247 252 252 252 252 251 248 247 247 246 244 243 245 250 249 246 244 246 250 250 250 250 248 245 244
234 234 187 201 215 206 227 218 224 237 262 261 351 282 272 242 242 231 244 243 246 246 250 252 250 248 246 245 247 242 241 243 245 245 244 243 246 251 251 246 248 247 244 240
202 186 200 208 219 195 221 173 203 223 234 275 244 268 257 246 258 258 242 240 241 245 247 249 250 250 249 249 245 245 245 242 242 242 242 240 241 244 243 245 248 250 248 244
240 175 213 209 172 187 144 129 106 125 224 251 238 221 256 238 241 248 259 253 253 251 260 259 258 262 261 254 250 245 241 236 236 237 237 237 238 237 239 246 250 249 248 247
199 216 183 174 169 181 181 175 168 212 208 248 28 209 250 264 256 243 265 261 245 250 253 257 247 257 270 257 242 240 235 236 237 237 239 237 237 237 238 242 246 247 247 247
214 221 203 188 200 179 197 192 195 216 206 265 158 230 255 258 261 261 257 260 267 267 262 261 258 264 266 256 234 235 234 234 236 236 236 234 228 232 237 239 242 246 247 244
207 230 175 205 183 171 183 217 214 326 91 273 233 254 268 235 241 247 256 258 265 279 270 245 259 275 268 234 231 228 225 231 230 224 219 221 224 227 232 235 235 234 235 234
184 256 176 193 193 222 197 170 182 220 227 240 248 264 252 245 227 235 250 256 261 282 271 234 244 268 246 229 224 217 211 205 205 208 209 215 222 229 232 229 225 222 224 232
146 245 120 157 201 188 192 197 227 213 223 240 266 254 287 255 257 266 269 260 247 273 266 234 235 241 233 208 202 198 196 197 201 206 213 220 230 224 217 215 216 221 231 239
210 238 226 202 346 279 210 206 193 205 201 236 264 261 103 298 273 265 265 284 282 269 230 220 211 245 236 225 218 212 208 210 214 217 221 228 225 222 220 221 224 227 227 228
203 230 246 244 233 231 234 231 219 230 253 236 233 257 234 228 243 266 273 270 310 266 249 238 230 259 257 247 236 228 227 227 229 228 232 231 232 231 231 230 229 227 228 233
300 232 221 236 242 234 216 226 225 223 232 243 239 260 247 248 244 254 259 273 285 268 275 257 289 307 314 297 268 250 241 238 236 236 238 235 235 237 237 234 231 231 233 238
339 287 244 255 264 268 261 253 230 230 232 233 242 246 257 250 251 250 278 270 243 243 267 285 297 299 297 297 273 258 253 247 245 245 242 241 241 239 237 235 235 235 236 239
165 261 319 301 265 269 258 247 249 238 253 253 255 259 264 264 267 267 251 253 267 277 278 288 288 283 282 281 280 262 258 260 256 253 251 247 244 243 241 239 238 239 240 240
177 220 236 266 356 320 282 259 243 247 252 254 251 250 262 267 262 256 255 256 254 260 267 271 279 276 272 271 283 273 270 261 261 259 254 250 247 246 244 243 241 241 241 241
232 219 239 261 270 269 255 298 251 239 241 246 255 274 277 267 262 261 263 259 258 258 261 267 269 270 264 271 267 270 270 266 259 258 256 252 250 248 245 243 242 241 241 242
217 223 247 244 250 273 280 275 244 252 257 247 247 253 258 266 268 266 254 255 256 258 262 268 264 262 265 262 258 259 262 265 260 251 248 247 248 249 246 242 240 240 241 243
224 223 233 241 256 260 258 262 230 204 268 251 256 255 256 259 264 267 269 264 258 259 260 256 256 255 256 257 258 256 258 256 255 254 251 247 242 239 238 237 238 239 242 246
195 218 223 229 245 262 257 248 168 251 263 268 263 255 255 257 252 265 277 277 255 244 245 245 241 244 248 249 249 248 245 246 244 242 243 241 237 233 232 234 237 241 247 254
209 206 215 216 233 248 227 197 217 230 251 254 266 270 273 270 274 279 276 261 249 240 230 230 231 227 229 232 231 233 231 232 233 235 238 239 237 236 237 242 249 256 261 265
239 221 240 224 231 254 213 222 240 239 264 289 282 289 280 282 283 281 263 239 222 223 214 208 207 210 204 210 208 199 200 205 216 230 234 233 236 241 247 251 256 262 267 271
234 245 244 261 260 255 263 264 264 267 283 286 287 287 283 281 279 273 232 211 205 203 200 191 193 197 194 189 189 189 184 182 192 209 218 223 232 243 253 263 269 274 282 290
240 239 233 249 261 268 267 267 273 275 284 278 279 283 287 286 271 252 228 202 199 196 192 185 185 187 186 174 173 175 184 208 223 241 252 264 271 277 283 288 297 305 308 313
229 240 239 247 264 250 274 265 282 276 278 272 273 277 269 258 250 221 191 184 182 174 171 172 167 169 164 156 158 165 208 291 287 290 293 296 296 297 300 303 306 308 312 319
Wind_Speed_850mb
19 16 32 38 39 15 10 22 19 6 5 10 31 39 39 47 41 39 36 38 48 57 64 64 64 61 55 60 60 60 56 51 51 55 55 55 53 50 49 43 38 33 32 33
10 35 26 15 20 22 19 19 19 12 4 8 23 37 36 47 48 59 63 63 59 48 45 53 59 68 70 70 67 64 61 60 59 60 59 57 54 53 48 44 38 36 35 35
30 5 24 24 20 27 28 33 23 17 7 11 21 48 45 35 61 62 60 61 60 60 63 65 73 72 65 70 75 76 73 68 65 66 68 66 64 63 59 52 43 39 37 36
25 31 19 26 33 25 27 20 21 18 11 15 4 23 33 9 20 24 44 50 62 72 83 81 75 75 79 83 73 61 59 62 64 62 69 74 67 64 62 57 51 45 40 40
15 15 31 22 17 29 10 15 20 22 22 20 32 18 15 4 19 27 38 55 58 52 53 62 69 85 83 77 74 76 75 73 66 63 59 62 65 59 59 60 58 55 53 51
21 4 21 21 12 29 20 17 11 6 7 16 34 27 32 28 21 23 32 35 35 37 37 49 59 54 61 66 76 74 66 69 66 62 58 59 57 53 56 60 61 60 56 53
12 24 8 12 18 12 27 25 7 8 11 18 7 24 45 11 17 23 29 26 19 22 26 32 40 38 37 48 58 62 75 70 72 73 70 67 61 59 56 56 58 55 51 49
24 17 34 25 22 14 32 32 11 17 12 9 7 23 16 10 27 36 41 49 51 49 44 35 28 34 42 43 48 52 53 59 67 70 71 69 61 57 57 56 52 48 44 40
17 22 8 13 17 29 20 27 22 4 5 6 14 19 19 22 25 36 36 28 30 29 28 29 29 28 26 30 37 43 53 50 50 51 54 53 50 50 46 41 40 38 33 30
3 9 4 24 20 30 25 20 11 12 13 18 22 21 24 8 17 29 35 37 27 20 21 27 23 19 16 23 29 30 31 35 40 43 43 43 41 37 37 35 33 30 27 25
6 7 6 9 26 31 16 10 12 14 19 14 14 17 4 21 24 21 13 18 16 20 14 15 16 15 14 17 23 27 31 36 39 40 38 35 35 35 33 31 29 27 27 26
28 11 10 17 4 20 41 36 28 16 21 23 27 36 8 2 5 9 18 13 6 6 7 5 3 7 14 19 25 31 37 40 41 38 34 33 33 34 34 33 32 33 31 27
22 14 26 24 11 16 20 40 40 42 21 33 25 33 15 30 21 21 23 17 14 9 10 7 4 4 14 22 31 39 42 44 42 41 40 39 39 39 39 37 37 36 33 30
20 19 25 35 39 26 22 41 48 43 30 43 38 60 45 24 22 37 44 44 24 15 16 9 6 9 13 23 36 45 49 50 49 49 49 49 47 48 46 45 45 44 41 40
7 9 15 40 41 35 29 37 44 52 58 45 53 57 58 46 40 44 31 24 17 23 30 40 51 57 53 47 40 47 56 57 56 58 58 57 57 54 52 52 53 52 52 51
19 10 23 38 29 30 43 45 38 37 37 48 59 56 53 56 50 46 46 57 52 60 66 60 67 61 66 57 53 46 51 59 66 69 69 66 65 61 61 62 63 61 59 58
9 7 6 12 13 24 16 27 43 46 50 49 53 63 58 54 42 45 45 38 53 68 69 65 66 67 68 57 60 61 54 53 62 75 77 76 72 70 70 69 67 66 65 63
11 12 12 20 20 38 12 25 33 39 48 41 38 46 53 62 72 62 58 59 74 79 79 86 84 84 78 72 66 64 57 50 52 56 64 76 77 76 74 72 72 70 69 67
31 17 15 16 26 23 31 35 23 25 38 43 48 53 78 89 86 68 76 85 94 77 74 80 72 74 73 68 63 63 60 57 53 55 57 63 71 76 74 74 71 70 69 69
30 27 18 18 24 39 38 23 18 2 17 30 42 42 56 74 33 36 62 60 75 81 81 77 71 68 62 55 51 50 50 50 49 50 51 56 62 67 70 73 71 70 70 69
8 11 31 25 21 16 22 33 17 18 31 52 46 47 63 42 46 79 55 52 50 59 65 64 55 49 46 42 40 37 39 42 39 39 38 38 41 49 57 62 64 63 63 64
19 12 11 11 14 19 43 4 21 28 46 46 29 33 42 58 63 56 49 40 38 36 38 39 38 35 30 26 25 25 27 26 27 28 27 27 29 34 38 42 47 51 55 59
17 24 17 12 9 9 28 42 46 23 20 36 38 30 39 47 43 39 33 26 31 33 32 29 25 22 19 18 18 18 14 13 12 12 14 15 18 22 27 33 37 41 46 51
17 33 21 31 36 45 64 47 47 48 49 49 55 49 39 43 39 31 22 23 28 29 25 24 22 19 15 14 13 12 13 13 12 13 15 16 18 20 23 26 30 33 39 46
23 18 31 36 37 58 58 42 36 35 32 39 45 42 37 34 27 22 20 20 26 23 23 22 18 16 13 10 9 7 5 6 7 9 11 13 17 19 23 26 30 34 37 39
37 35 21 27 35 13 20 17 18 23 31 35 32 32 28 24 23 21 22 21 18 20 16 15 16 9 8 6 3 1 0 2 7 11 14 17 21 24 27 29 30 32 32 33
Wind_Direction_850mb
177 205 211 202 208 232 257 221 230 235 229 244 242 251 256 256 249 253 249 249 248 247 248 246 244 247 245 242 242 243 244 243 242 242 242 244 247 250 252 255 255 254 252 249
177 229 230 229 201 207 222 226 228 265 218 230 277 270 263 260 252 249 250 252 252 254 252 249 248 247 245 245 247 244 243 244 245 247 247 247 251 253 256 257 253 250 249 250
211 179 199 191 201 207 220 229 227 249 322 243 294 279 258 245 245 247 246 247 252 252 252 252 251 248 247 247 246 244 243 245 250 249 246 244 246 250 250 250 250 248 245 244
234 234 187 201 215 206 227 218 224 237 262 261 351 282 272 242 242 231 244 243 246 246 250 252 250 248 246 245 247 242 241 243 245 245 244 243 246 251 251 246 248 247 244 240
202 186 200 208 219 195 221 173 203 223 234 275 244 268 257 246 258 258 242 240 241 245 247 249 250 250 249 249 245 245 245 242 242 242 242 240 241 244 243 245 248 250 248 244
240 175 213 209 172 187 144 129 106 125 224 251 238 221 256 238 241 248 259 253 253 251 260 259 258 262 261 254 250 245 241 236 236 237 237 237 238 237 239 246 250 249 248 247
199 216 183 174 169 181 181 175 168 212 208 248 28 209 250 264 256 243 265 261 245 250 253 257 247 257 270 257 242 240 235 236 237 237 239 237 237 237 238 242 246 247 247 247
214 221 203 188 200 179 197 192 195 216 206 265 158 230 255 258 261 261 257 260 267 267 262 261 258 264 266 256 234 235 234 234 236 236 236 234 228 232 237 239 242 246 247 244
207 230 175 205 183 171 183 217 214 326 91 273 233 254 268 235 241 247 256 258 265 279 270 245 259 275 268 234 231 228 225 231 230 224 219 221 224 227 232 235 235 234 235 234
184 256 176 193 193 222 197 170 182 220 227 240 248 264 252 245 227 235 250 256 261 282 271 234 244 268 246 229 224 217 211 205 205 208 209 215 222 229 232 229 225 222 224 232
146 245 120 157 201 188 192 197 227 213 223 240 266 254 287 255 257 266 269 260 247 273 266 234 235 241 233 208 202 198 196 197 201 206 213 220 230 224 217 215 216 221 231 239
210 238 226 202 346 279 210 206 193 205 201 236 264 261 103 298 273 265 265 284 282 269 230 220 211 245 236 225 218 212 208 210 214 217 221 228 225 222 220 221 224 227 227 228
203 230 246 244 233 231 234 231 219 230 253 236 233 257 234 228 243 266 273 270 310 266 249 238 230 259 257 247 236 228 227 227 229 228 232 231 232 231 231 230 229 227 228 233
300 232 221 236 242 234 216 226 225 223 232 243 239 260 247 248 244 254 259 273 285 268 275 257 289 307 314 297 268 250 241 238 236 236 238 235 235 237 237 234 231 231 233 238
339 287 244 255 264 268 261 253 230 230 232 233 242 246 257 250 251 250 278 270 243 243 267 285 297 299 297 297 273 258 253 247 245 245 242 241 241 239 237 235 235 235 236 239
165 261 319 301 265 269 258 247 249 238 253 253 255 259 264 264 267 267 251 253 267 277 278 288 288 283 282 281 280 262 258 260 256 253 251 247 244 243 241 239 238 239 240 240
177 220 236 266 356 320 282 259 243 247 252 254 251 250 262 267 262 256 255 256 254 260 267 271 279 276 272 271 283 273 270 261 261 259 254 250 247 246 244 243 241 241 241 241
232 219 239 261 270 269 255 298 251 239 241 246 255 274 277 267 262 261 263 259 258 258 261 267 269 270 264 271 267 270 270 266 259 258 256 252 250 248 245 243 242 241 241 242
217 223 247 244 250 273 280 275 244 252 257 247 247 253 258 266 268 266 254 255 256 258 262 268 264 262 265 262 258 259 262 265 260 251 248 247 248 249 246 242 240 240 241 243
224 223 233 241 256 260 258 262 230 204 268 251 256 255 256 259 264 267 269 264 258 259 260 256 256 255 256 257 258 256 258 256 255 254 251 247 242 239 238 237 238 239 242 246
195 218 223 229 245 262 257 248 168 251 263 268 263 255 255 257 252 265 277 277 255 244 245 245 241 244 248 249 249 248 245 246 244 242 243 241 237 233 232 234 237 241 247 254
209 206 215 216 233 248 227 197 217 230 251 254 266 270 273 270 274 279 276 261 249 240 230 230 231 227 229 232 231 233 231 232 233 235 238 239 237 236 237 242 249 256 261 265
239 221 240 224 231 254 213 222 240 239 264 289 282 289 280 282 283 281 263 239 222 223 214 208 207 210 204 210 208 199 200 205 216 230 234 233 236 241 247 251 256 262 267 271
234 245 244 261 260 255 263 264 264 267 283 286 287 287 283 281 279 273 232 211 205 203 200 191 193 197 194 189 189 189 184 182 192 209 218 223 232 243 253 263 269 274 282 290
240 239 233 249 261 268 267 267 273 275 284 278 279 283 287 286 271 252 228 202 199 196 192 185 185 187 186 174 173 175 184 208 223 241 252 264 271 277 283 288 297 305 308 313
229 240 239 247 264 250 274 265 282 276 278 272 273 277 269 258 250 221 191 184 182 174 171 172 167 169 164 156 158 165 208 291 287 290 293 296 296 297 300 303 306 308 312 319